Location: Gibsondale
(40.9931°N, 80.2478°W)
Time: 09:11:10
(UTC+00:00)

CZ-4 R/B - Pass Details

Date: 29 October 2020
Orbit: 579 x 589 km, 97.8° (Epoch: 27 November)

Event Time Altitude Azimuth Distance (km) Brightness Sun altitude
Rises 23:40:02 0° 166° (SSE) 2,805 7.8 -15.6°
Reaches altitude 10° 23:42:11 10° 166° (SSE) 1,910 7.0 -16.1°
Maximum altitude 23:46:20 88° 78° (ENE) 596 4.4 -16.8°
Drops below altitude 10° 23:50:31 10° 348° (NNW) 1,925 7.2 -17.6°
Sets 23:52:41 0° 348° (NNW) 2,830 8.1 -18.0°
